To NAV CANADA Home Page Login to a new session Search on AWWS site Disclaimer Vers la page française équivalente Tips FAQ What's new on the site To the Forecasts and Observations / NOTAM section To "File a Flight Plan" website Publications and other links Update of the User's profile FIC Telephone Numbers My Weather Data Folder Route Weather Data Regional Weather Data Local Weather Data To the Forecasts and Observations / NOTAM section
Request Generated 04/24/2019 at 16:32:59 UTC . Weather information available at that time is displayed.

METAR/TAF

SANIKILUAQ/NU    

METAR CYSK 241600Z 13013KT 15SM FEW120 BKN200 M01/M06 A2996 RMK AC1CS5 SLP150=
METAR CYSK 241500Z 14013KT 15SM FEW120 BKN200 M02/M07 A2999 RMK AC1CS5 SLP160=
METAR CYSK 241400Z 12010KT 15SM FEW120 SCT200 M04/M08 A3001 RMK AC1CS3 SLP168=

CYSK - No TAF is issued for this station

Your time UTC time
Weather data provided by Environment Canada and NAV CANADA